Flag for U.S.A. Weather past 2 weeks in Chicago, Illinois, U.S.A.

Now
74 °F

Passing clouds.


Feels Like: 74 °F
Forecast: 70 / 83 °F
Wind: 3 mph from East

Location: Chicago Midway Airport

Current Time: Sep 5, 2015 at 12:58:41 AM

Latest Report: Sep 4, 2015 at 11:53 PM


Visibility: 10 mi

Pressure: 30.01 "Hg

Humidity: 79%

Dew point: 67 °F

Location of ChicagoLocation

Historic Weather in Chicago — Graph

°F

Chicago temperature yesterday

Maximum temperature yesterday: 85 °F (at 12:53 PM)
Minimum temperature yesterday: 72 °F (at 6:53 AM)
Average temperature yesterday: 77 °F

Past Weeks' High & Low Weather Summary

 TemperatureHumidityPressure
High93 °F (Sep 3, 2:53 PM)90% (Aug 30, 12:53 AM)30.22 "Hg (Aug 30, 12:53 AM)
Low57 °F (Aug 24, 5:53 AM)34% (Aug 24, 2:53 PM)29.82 "Hg (Aug 23, 12:53 PM)
Average73 °F65%30.01 "Hg
* Reported Aug 20 10:53 PM — Sep 4 10:53 PM, Chicago, Weather by CustomWeather, © 2015

Note: Actual official high and low records may vary slightly from our data, if they occured in-between our weather recording intervals... More about our weather records

Advertising

Chicago weather history for previous 24 hours

 ConditionsComfort  
Time TempWeatherWind HumidityBarometerVisibility
10:53 PM
Fri, Sep 4
75 °FMostly cloudy.7 mph74%30.03 "Hg10 mi
9:53 PM74 °FPassing clouds.6 mph76%30.03 "Hg10 mi
8:53 PM74 °FPassing clouds.9 mph79%30.02 "Hg10 mi
7:53 PM75 °FScattered clouds.8 mph74%30.00 "Hg10 mi
6:53 PM76 °FBroken clouds.10 mph69%30.00 "Hg10 mi
5:53 PM77 °FPartly sunny.16 mph66%30.00 "Hg10 mi
4:53 PM79 °FBroken clouds.12 mph67%29.98 "Hg10 mi
3:53 PM80 °FScattered clouds.10 mph67%29.97 "Hg10 mi
2:53 PM82 °FScattered clouds.12 mph63%29.98 "Hg10 mi
1:53 PM85 °FScattered clouds.7 mph57%29.97 "Hg10 mi
12:53 PM85 °FScattered clouds.12 mph57%29.98 "Hg10 mi
11:53 AM84 °FScattered clouds.No wind59%29.99 "Hg10 mi
10:53 AM81 °FPassing clouds.No wind62%30.00 "Hg10 mi
9:53 AM78 °FPassing clouds.6 mph69%30.00 "Hg10 mi
8:53 AM75 °FScattered clouds.7 mph74%29.98 "Hg10 mi
7:53 AM75 °FScattered clouds.6 mph76%29.97 "Hg10 mi
6:53 AM72 °FPassing clouds.No wind81%29.96 "Hg10 mi
5:53 AM73 °FPassing clouds.3 mph79%29.94 "Hg10 mi
4:53 AM73 °FPassing clouds.No wind79%29.93 "Hg10 mi
3:53 AM73 °FClear.3 mph79%29.92 "Hg10 mi
2:53 AM73 °FClear.No wind79%29.92 "Hg10 mi
1:53 AM73 °FPassing clouds.7 mph81%29.92 "Hg10 mi
12:53 AM74 °FPassing clouds.9 mph79%29.93 "Hg10 mi
Weather by CustomWeather, © 2015

See weather overviewHow to use our weather pages